N974MT NZAR-NZAA

Flight info

Callsign N974MT
Flight time 0h -16m
Altitude 1300
Route NZAR DCT NZAA
Aircraft ASTR/M-S/L

Departure

Time 2026-04-16 04:03
Airport Ardmore Airport (NZAR)

Arrival

Time 2026-04-16 03:47
Airport Auckland International Airport (NZAA)
Time Latitude Longitude Altitude Speed Heading
2026-04-16 03:47 -37.03143 174.97933 109 ft 0 kts 314°
2026-04-16 03:48 -37.03130 174.97914 108 ft 0 kts 220°
2026-04-16 03:58 -37.03131 174.97913 109 ft 2 kts 219°
2026-04-16 03:58 -37.03106 174.97871 106 ft 13 kts 317°
2026-04-16 03:59 -37.03121 174.97807 109 ft 7 kts 220°
2026-04-16 03:59 -37.03141 174.97777 107 ft 2 kts 286°
2026-04-16 03:59 -37.03106 174.97732 109 ft 8 kts 311°
2026-04-16 03:59 -37.03043 174.97653 109 ft 11 kts 313°
2026-04-16 04:00 -37.03020 174.97634 110 ft 4 kts
2026-04-16 04:00 -37.02976 174.97689 107 ft 14 kts 50°
2026-04-16 04:00 -37.02892 174.97794 107 ft 22 kts 45°
2026-04-16 04:00 -37.02820 174.97906 109 ft 12 kts 90°
2026-04-16 04:01 -37.02823 174.98054 108 ft 19 kts 91°
2026-04-16 04:01 -37.02775 174.98115 108 ft 10 kts 336°
2026-04-16 04:01 -37.02707 174.98077 108 ft 11 kts 332°
2026-04-16 04:01 -37.02681 174.98060 108 ft 5 kts 331°
2026-04-16 04:02 -37.02657 174.97996 109 ft 9 kts 242°
2026-04-16 04:02 -37.02666 174.97982 109 ft 0 kts 224°
2026-04-16 04:02 -37.02771 174.97848 109 ft 65 kts 226°
2026-04-16 04:03 -37.03296 174.97184 218 ft 138 kts 226°
2026-04-16 04:03 -37.03975 174.96296 636 ft 145 kts 230°
2026-04-16 04:03 -37.04669 174.95337 932 ft 153 kts 234°
2026-04-16 04:03 -37.05064 174.94006 940 ft 179 kts 262°
2026-04-16 04:04 -37.04942 174.92350 1007 ft 203 kts 281°
2026-04-16 04:04 -37.04310 174.90718 1129 ft 221 kts 305°
2026-04-16 04:04 -37.03164 174.89384 1326 ft 225 kts 315°
2026-04-16 04:04 -37.01931 174.88132 1117 ft 230 kts 316°
2026-04-16 04:05 -37.00805 174.87004 1274 ft 178 kts 315°
2026-04-16 04:05 -37.00005 174.86180 1126 ft 134 kts 308°
2026-04-16 04:05 -36.99496 174.85263 908 ft 123 kts 294°
2026-04-16 04:05 -36.99544 174.84266 764 ft 121 kts 246°
2026-04-16 04:06 -36.99869 174.83272 644 ft 124 kts 245°
2026-04-16 04:06 -37.00176 174.82274 421 ft 123 kts 248°
2026-04-16 04:06 -37.00470 174.81265 196 ft 120 kts 246°
2026-04-16 04:06 -37.00733 174.80338 50 ft 106 kts 247°
2026-04-16 04:07 -37.00916 174.79669 20 ft 26 kts 250°
2026-04-16 04:07 -37.00896 174.79415 20 ft 5 kts 274°
2026-04-16 04:07 -37.00896 174.79405 20 ft 0 kts 275°
2026-04-16 04:08 -37.00886 174.79336 20 ft 18 kts 280°
2026-04-16 04:08 -37.00872 174.79210 20 ft 3 kts 306°
2026-04-16 04:08 -37.00845 174.79228 20 ft 7 kts 66°
2026-04-16 04:09 -37.00813 174.79346 20 ft 24 kts 71°
2026-04-16 04:09 -37.00752 174.79565 20 ft 29 kts 71°
2026-04-16 04:09 -37.00681 174.79813 20 ft 31 kts 73°
2026-04-16 04:09 -37.00609 174.80080 20 ft 33 kts 72°
2026-04-16 04:10 -37.00547 174.80307 22 ft 23 kts 73°
2026-04-16 04:10 -37.00459 174.80356 20 ft 17 kts 341°
2026-04-16 04:10 -37.00419 174.80396 20 ft 12 kts 68°
2026-04-16 04:10 -37.00337 174.80445 20 ft 12 kts 337°
2026-04-16 04:11 -37.00258 174.80400 21 ft 11 kts 296°
2026-04-16 04:11 -37.00260 174.80378 20 ft 1 kts 253°
2026-04-16 04:11 -37.00260 174.80359 20 ft 2 kts 238°
2026-04-16 04:11 -37.00265 174.80363 20 ft 0 kts 135°
2026-04-16 04:12 -37.00262 174.80370 22 ft 0 kts 68°
2026-04-16 04:12 -37.00262 174.80371 22 ft 0 kts 72°